Location: Catenanuova
(37.5690°N, 14.6870°E)
Time: 15:30:57
(UTC+02:00)

Tiangong - Visible Passes

Search period start: 13 July 2025 00:00
Search period end: 23 July 2025 00:00
Orbit: 384 x 403 km, 41.5° (Epoch: 12 July)

Date Brightness Start Highest point End Pass type
(mag) Time Alt. Az. Time Alt. Az. Time Alt. Az.
13 Jul 0.6 02:45:25 18° ENE 02:45:25 18° ENE 02:46:31 10° ENE visible
13 Jul -2.0 04:17:51 13° WNW 04:20:41 80° NNE 04:23:57 10° ESE visible
14 Jul -1.0 03:24:34 44° ENE 03:24:34 44° ENE 03:27:07 10° E visible
14 Jul -1.4 04:57:50 10° W 05:00:51 34° SSW 05:03:51 10° SE visible
15 Jul -2.0 04:04:21 56° S 04:04:21 56° S 04:07:22 10° SE visible
16 Jul -0.3 04:44:51 16° SSW 04:44:51 16° SSW 04:46:22 10° S visible
16 Jul -0.8 21:16:35 10° SSW 21:19:06 21° SSE 21:20:36 16° ESE visible
16 Jul 0.7 22:52:40 10° WSW 22:53:06 13° WSW 22:53:06 13° WSW visible
17 Jul -2.2 21:55:52 10° WSW 21:59:04 70° SSE 22:00:15 35° E visible
18 Jul -1.7 20:59:14 10° SW 21:02:17 42° SSE 21:05:23 10° E visible
18 Jul -1.3 22:36:09 10° W 22:39:16 51° NNW 22:39:16 51° NNW visible
19 Jul -1.8 21:39:11 10° W 21:42:23 68° NNW 21:45:27 11° ENE visible
19 Jul 0.5 23:16:37 10° WNW 23:17:51 20° WNW 23:17:51 20° WNW visible
20 Jul -2.1 20:42:17 10° WSW 20:45:29 81° SSE 20:48:43 10° ENE visible
20 Jul -0.9 22:19:36 10° WNW 22:22:42 40° N 22:23:44 30° NE visible
21 Jul -1.1 21:22:34 10° W 21:25:41 47° N 21:28:50 10° ENE visible
21 Jul 0.0 22:59:56 10° WNW 23:01:51 29° NW 23:01:51 29° NW visible
22 Jul -0.8 22:02:57 10° WNW 22:06:01 39° N 22:07:27 24° NE visible
